Wetbulb
58.83 59.20 57.85 57.43 57.51 57.87 57.16 57.35 57.80 58.14 59.80 60.32 60.65 60.83 60.82 61.04 59.63 58.93 54.12 62.70 64.72 69.38 69.82 67.26 67.56 68.96 68.42 66.81 66.23 66.78 59.52 54.95 56.29 56.99 58.61 62.34 59.87 63.07 64.27 62.42 64.17 64.51 65.33 69.02 70.75
58.86 58.69 57.72 57.24 56.81 56.93 57.07 57.58 57.26 58.03 58.87 60.27 60.37 60.37 60.64 60.52 58.82 56.44 64.97 69.30 69.60 71.00 65.85 65.57 64.55 65.54 63.99 64.49 64.10 61.62 55.18 57.73 61.02 61.21 60.19 61.56 63.03 63.38 62.51 62.62 62.43 64.58 67.90 69.34 70.10
58.87 58.40 57.63 57.61 57.02 56.72 56.93 57.66 57.75 57.61 57.95 59.46 59.97 60.02 60.40 60.25 57.67 57.34 69.70 69.91 69.92 70.66 64.66 65.93 64.84 64.50 62.03 63.72 63.27 61.90 58.16 60.82 61.84 62.85 62.65 62.35 61.97 64.44 62.31 61.63 63.63 64.34 66.55 67.89 68.46
58.62 58.28 57.43 57.25 57.43 56.79 56.80 57.55 57.28 57.46 57.56 57.81 59.48 59.71 60.46 61.31 53.80 62.39 70.62 70.15 70.82 66.96 64.35 64.57 63.01 61.42 60.36 60.72 63.60 60.62 62.55 62.97 62.92 63.62 62.56 61.65 63.14 62.05 62.27 63.95 66.79 67.11 68.98 67.97 67.33
58.39 58.13 57.45 57.12 57.38 56.98 56.82 56.98 56.94 57.12 56.98 57.14 59.15 59.97 61.41 56.74 58.36 63.68 70.93 70.17 64.53 63.97 63.57 62.79 61.55 61.17 59.57 61.28 61.96 58.50 61.16 62.19 63.03 62.71 63.03 63.53 61.27 61.15 62.44 65.64 68.16 67.12 69.25 67.97 67.78
58.36 57.97 57.55 56.75 56.56 56.43 56.71 56.71 56.57 56.65 56.70 57.29 58.91 59.77 59.06 56.61 63.68 61.66 63.11 63.22 64.44 63.80 63.99 63.34 62.03 63.22 61.92 61.20 60.76 61.78 61.60 61.84 62.29 61.89 62.58 60.63 61.21 62.13 63.03 65.73 67.39 66.66 67.06 68.65 68.22
58.20 57.85 57.42 57.00 56.71 56.62 56.96 56.74 56.63 56.62 57.19 57.56 59.29 62.34 60.10 59.04 64.78 62.72 64.99 64.42 64.89 64.52 61.88 63.69 63.58 61.93 62.57 60.28 62.53 62.09 58.77 59.93 60.38 61.03 61.16 63.14 59.26 56.68 60.36 62.63 65.54 66.33 66.73 67.95 68.76
57.91 57.61 57.37 56.99 56.75 56.94 57.02 56.78 56.66 57.08 57.89 58.62 59.82 62.38 58.32 65.66 67.67 63.20 65.07 63.85 64.87 65.07 63.59 64.09 63.89 61.67 61.00 63.02 59.40 57.96 59.05 55.15 57.32 57.84 61.65 61.91 54.67 58.36 60.66 59.76 64.87 65.36 66.43 67.10 68.47
57.61 57.36 57.24 56.93 56.69 56.88 56.76 56.19 56.83 59.64 59.32 59.58 60.96 62.10 58.20 65.40 62.87 66.33 65.37 62.96 63.67 63.50 64.08 63.40 62.29 59.94 60.82 57.45 55.51 57.05 52.43 52.80 56.64 59.30 60.53 60.49 56.96 61.90 63.16 63.49 63.60 64.72 65.31 66.44 67.25
57.28 56.89 56.87 56.19 56.16 56.29 55.88 55.34 58.51 58.36 59.64 63.20 62.50 60.16 61.07 59.56 62.52 64.67 66.07 64.47 61.97 62.17 61.22 60.34 59.19 56.96 57.43 55.92 48.61 51.15 51.76 53.92 54.55 58.54 59.10 56.74 56.55 59.99 62.66 65.22 64.50 64.52 64.13 65.76 66.26
56.94 56.51 56.27 55.86 55.99 55.72 56.68 60.90 57.89 58.07 61.84 56.11 56.78 58.97 59.65 62.61 64.43 63.16 64.28 62.78 62.31 60.79 56.58 58.91 54.96 52.96 55.02 56.44 55.43 54.95 52.35 51.53 54.59 56.94 56.75 55.62 56.11 59.33 62.27 63.26 64.49 59.17 60.54 65.57 65.77
56.29 56.25 55.97 55.78 55.82 55.54 56.24 58.85 59.93 60.99 56.37 59.02 58.21 59.57 61.46 62.49 58.32 60.70 64.18 59.72 59.25 55.97 57.97 56.12 53.19 57.35 57.20 57.43 55.80 54.41 51.89 51.56 54.73 55.83 55.38 55.49 56.11 59.29 59.67 57.59 58.13 57.92 56.17 64.13 65.19
55.70 55.70 55.56 55.60 55.32 55.64 57.97 57.85 62.43 62.41 56.00 58.05 57.69 58.19 58.98 60.60 57.57 58.41 61.65 60.35 57.81 56.23 56.13 54.18 55.26 58.50 56.57 54.84 53.87 53.89 52.43 52.53 52.26 54.10 54.84 55.21 54.65 56.27 57.10 56.77 56.76 56.22 59.51 60.28 65.31
55.24 54.63 55.01 54.61 54.89 60.51 57.53 60.69 62.17 62.71 52.73 55.17 55.70 57.02 58.53 59.18 55.98 60.48 62.33 59.81 57.50 54.90 56.35 55.69 58.30 56.62 55.64 53.44 54.83 51.62 55.45 54.40 53.27 51.55 47.77 55.36 46.61 52.60 55.15 56.13 57.08 57.39 58.42 59.50 63.81
54.89 54.63 54.57 53.81 58.67 59.93 61.42 63.25 63.16 61.59 45.90 55.70 55.76 60.85 58.14 55.83 57.10 57.50 61.41 59.77 55.48 54.69 56.02 53.90 54.85 55.43 53.71 54.18 55.96 53.13 55.91 53.84 53.61 52.45 52.17 51.80 48.03 53.15 55.86 52.76 55.84 58.46 59.25 60.20 64.81
54.55 54.87 53.94 59.92 59.98 62.28 63.40 62.89 62.08 52.11 45.82 54.63 56.64 54.57 54.15 54.88 55.56 57.37 57.90 59.93 59.11 55.42 55.77 54.94 57.54 56.42 55.99 56.98 56.68 56.59 54.13 53.63 54.09 51.95 45.47 49.54 48.57 49.74 50.89 53.06 57.16 58.16 59.36 61.75 63.01
54.20 54.26 53.56 60.81 61.65 62.46 62.81 60.15 51.46 47.56 56.03 53.51 54.48 56.44 54.63 54.05 54.19 54.40 53.87 54.08 52.48 50.25 50.69 53.43 53.79 56.28 56.83 54.05 56.15 55.23 52.48 45.93 44.18 43.87 40.45 50.29 48.35 50.11 55.43 56.61 57.24 57.63 58.87 61.58 62.86
53.22 52.35 57.32 62.71 65.63 63.80 61.56 55.55 48.12 53.37 52.36 57.81 56.76 55.90 53.58 57.06 55.93 54.59 52.04 51.11 54.48 54.00 50.75 48.99 47.57 54.11 56.70 54.88 53.21 52.87 52.42 46.50 40.83 40.32 41.13 50.18 45.82 49.51 56.76 58.51 58.87 59.78 60.85 61.22 62.07
51.54 64.45 64.26 63.15 63.27 63.77 58.28 50.43 51.23 54.02 55.56 55.54 56.25 53.80 53.91 54.64 55.32 55.58 54.20 52.99 55.91 56.14 51.25 51.28 50.02 56.11 56.81 57.12 55.96 53.16 50.71 55.24 49.41 49.48 45.32 48.07 50.47 54.42 56.16 57.61 58.22 58.35 60.33 60.97 59.56
59.99 65.50 60.73 63.63 64.10 61.08 55.39 49.81 54.59 56.32 56.32 56.01 52.34 54.57 52.04 54.15 52.25 52.92 53.57 55.44 55.65 56.92 57.30 55.60 50.40 55.97 55.93 57.71 57.07 55.33 56.15 49.10 49.74 40.47 39.43 45.66 46.84 47.04 53.17 54.93 57.10 57.47 58.92 60.59 61.99
62.94 61.39 62.98 62.91 63.08 57.76 51.78 53.69 55.95 57.15 56.29 54.33 53.55 53.80 54.38 53.30 54.69 54.02 53.38 56.64 58.25 58.41 59.85 57.24 54.83 53.48 55.25 53.37 52.23 51.86 49.91 51.04 51.48 47.42 42.28 42.42 45.89 54.85 54.71 55.97 56.14 56.85 58.67 59.55 60.06
64.04 58.32 62.35 62.59 54.72 55.74 53.23 56.15 52.91 56.21 56.78 55.05 55.61 54.84 54.39 54.17 54.11 54.10 53.61 56.78 60.71 59.91 55.52 57.30 54.43 49.88 52.04 56.04 56.65 54.78 51.00 47.88 47.02 46.41 49.63 48.42 44.17 56.53 56.26 56.65 56.79 55.92 57.60 58.86 59.43
61.35 60.80 61.71 60.55 51.08 53.21 56.66 55.93 56.42 54.96 54.98 54.88 54.33 55.91 56.38 54.67 53.73 55.07 55.79 59.54 60.71 59.19 58.12 59.45 51.01 46.33 48.43 53.42 54.70 50.09 52.01 53.10 53.01 55.08 48.78 45.21 47.01 56.21 56.28 55.77 56.20 55.58 56.45 57.49 57.83
62.46 56.09 56.72 56.74 56.93 56.14 56.33 54.95 54.12 57.01 56.58 56.31 55.64 55.97 54.73 54.92 57.50 55.00 55.72 56.04 56.77 57.83 58.47 61.32 56.48 49.96 41.08 47.11 52.70 50.28 53.19 54.44 54.34 48.57 49.11 47.24 49.23 51.39 53.92 52.84 54.29 55.24 56.05 56.66 56.98
64.86 60.79 62.05 51.61 52.30 55.40 57.35 56.33 54.61 55.12 58.40 58.77 57.04 56.25 54.71 53.15 54.92 55.08 56.84 53.40 55.14 56.31 56.35 59.82 52.92 54.08 54.52 54.59 54.30 53.50 52.70 52.43 50.79 51.59 48.59 49.82 48.74 50.98 53.17 52.45 52.79 54.01 54.43 54.89 54.93
63.21 62.58 65.38 59.18 58.33 56.97 53.59 55.75 55.02 57.73 58.22 57.12 56.29 57.39 57.81 56.07 55.91 54.71 56.36 53.58 51.56 53.92 54.25 58.96 53.31 54.86 51.56 53.84 52.80 50.92 53.50 52.56 52.30 52.63 51.90 51.27 50.76 54.96 54.47 54.10 52.73 52.85 53.10 53.18 53.84
63.30 64.93 64.83 59.58 58.86 56.06 56.25 57.62 58.12 58.53 58.04 58.67 57.83 57.54 56.75 57.96 59.67 61.49 55.98 56.47 58.99 56.98 56.83 56.74 56.35 48.90 44.12 53.27 51.60 48.13 52.02 52.66 53.45 54.18 52.50 48.74 51.96 53.48 52.33 51.83 51.97 52.55 52.98 52.84 53.58
MSLP
1016.43 1016.16 1016.02 1015.84 1015.60 1015.35 1015.18 1015.01 1014.89 1014.77 1014.54 1014.29 1014.19 1014.06 1013.85 1013.58 1012.94 1012.44 1010.33 1008.50 1008.43 1008.31 1009.18 1008.12 1007.88 1006.32 1005.26 1004.32 1003.72 1004.39 1005.02 1004.82 1004.00 1003.41 1003.75 1004.56 1004.78 1005.50 1005.88 1006.20 1006.68 1007.53 1008.40 1009.46 1010.89
1016.44 1016.18 1016.05 1015.84 1015.63 1015.37 1015.14 1014.92 1014.79 1014.62 1014.48 1014.30 1014.12 1013.97 1013.86 1013.61 1012.28 1010.10 1008.08 1008.21 1008.33 1008.54 1008.64 1007.34 1005.91 1005.09 1004.29 1003.44 1003.59 1005.59 1008.16 1005.46 1004.70 1003.29 1003.66 1003.87 1004.26 1004.85 1005.32 1005.72 1006.72 1007.96 1008.77 1009.81 1010.78
1016.49 1016.19 1015.97 1015.72 1015.52 1015.33 1015.11 1014.83 1014.62 1014.51 1014.40 1014.27 1014.02 1013.85 1013.72 1013.38 1011.30 1007.58 1007.59 1007.85 1008.19 1008.46 1007.77 1006.73 1005.31 1004.50 1003.95 1003.60 1003.82 1005.52 1006.27 1005.45 1004.58 1003.77 1003.52 1003.41 1003.60 1003.90 1004.35 1005.32 1006.19 1006.67 1008.44 1009.48 1010.28
1016.56 1016.25 1015.97 1015.66 1015.40 1015.21 1015.02 1014.76 1014.56 1014.38 1014.24 1014.15 1013.97 1013.77 1013.53 1012.53 1009.08 1006.74 1007.18 1007.66 1008.12 1008.24 1007.69 1006.11 1005.07 1004.24 1004.46 1004.44 1004.23 1004.29 1004.79 1004.28 1003.90 1003.64 1003.59 1003.33 1003.28 1004.15 1004.03 1004.75 1005.26 1006.14 1007.72 1008.93 1009.59
1016.64 1016.31 1016.00 1015.72 1015.40 1015.11 1014.88 1014.69 1014.50 1014.30 1014.18 1014.09 1013.86 1013.61 1013.14 1010.87 1007.58 1007.17 1007.92 1007.88 1008.03 1008.19 1006.98 1005.30 1004.37 1003.84 1004.66 1005.06 1004.90 1005.01 1004.81 1003.99 1003.63 1003.80 1003.58 1003.51 1003.46 1003.55 1003.85 1004.10 1005.55 1006.08 1007.31 1008.35 1009.00
1016.67 1016.33 1015.99 1015.62 1015.33 1015.04 1014.77 1014.53 1014.35 1014.15 1014.01 1013.93 1013.75 1013.62 1012.26 1008.69 1006.25 1006.89 1007.20 1007.43 1007.00 1007.15 1005.78 1004.74 1003.88 1003.61 1003.90 1004.98 1004.69 1005.10 1004.70 1003.99 1003.51 1003.56 1003.61 1003.81 1003.77 1004.01 1005.22 1004.87 1005.47 1006.04 1006.60 1007.49 1008.25
1016.69 1016.31 1015.93 1015.57 1015.18 1014.83 1014.54 1014.28 1014.08 1013.90 1013.80 1013.77 1013.66 1013.06 1010.37 1007.14 1005.80 1006.62 1006.49 1006.50 1006.39 1005.71 1004.84 1004.20 1004.00 1003.85 1003.50 1003.54 1003.48 1003.84 1004.12 1003.70 1004.98 1004.82 1003.67 1003.72 1004.46 1006.60 1007.39 1006.40 1005.10 1005.97 1006.24 1006.58 1007.35
1016.67 1016.33 1015.88 1015.48 1015.12 1014.71 1014.31 1013.99 1013.75 1013.53 1013.46 1013.47 1013.46 1012.16 1008.44 1005.68 1005.22 1005.80 1006.01 1005.86 1005.72 1005.29 1005.06 1004.65 1004.44 1004.26 1003.58 1003.23 1003.56 1003.57 1004.55 1005.53 1006.17 1007.12 1005.19 1004.46 1005.32 1007.16 1007.14 1007.55 1005.27 1005.70 1005.98 1006.20 1006.71
1016.56 1016.21 1015.82 1015.42 1015.00 1014.56 1014.14 1013.77 1013.36 1013.07 1013.07 1013.09 1012.80 1010.86 1006.95 1005.92 1005.33 1005.00 1005.22 1005.21 1005.14 1005.20 1005.03 1005.05 1004.90 1004.19 1003.57 1003.45 1004.10 1004.33 1004.79 1005.51 1005.75 1005.42 1004.43 1003.80 1003.91 1005.12 1005.90 1005.09 1005.02 1005.40 1005.57 1005.93 1006.54
1016.59 1016.15 1015.78 1015.39 1014.90 1014.42 1013.93 1013.67 1013.00 1012.86 1012.58 1011.76 1010.44 1009.19 1006.06 1004.74 1004.29 1004.43 1004.83 1004.95 1004.93 1005.01 1004.90 1004.80 1004.66 1004.12 1004.12 1004.44 1006.08 1004.92 1003.58 1003.73 1003.78 1003.77 1003.22 1002.84 1002.76 1002.99 1003.43 1004.37 1004.96 1004.94 1005.19 1005.27 1005.71
1016.56 1016.13 1015.71 1015.32 1014.85 1014.44 1013.17 1012.59 1012.51 1011.25 1010.06 1008.04 1006.82 1005.85 1004.07 1003.58 1003.62 1004.46 1004.60 1004.80 1004.75 1004.82 1004.66 1004.47 1004.45 1004.13 1004.82 1006.19 1006.52 1004.92 1003.46 1002.62 1002.07 1002.42 1002.74 1003.62 1002.49 1002.95 1004.08 1005.62 1005.49 1006.32 1006.24 1005.16 1005.25
1016.53 1016.02 1015.57 1015.16 1014.77 1014.47 1014.12 1010.72 1007.69 1006.87 1006.68 1006.34 1005.43 1004.70 1003.94 1003.15 1003.65 1003.86 1004.25 1004.72 1004.66 1004.49 1004.29 1004.30 1004.43 1004.34 1005.40 1005.67 1005.59 1004.54 1003.28 1002.51 1002.16 1001.99 1002.10 1002.33 1002.71 1003.91 1005.79 1007.98 1009.33 1009.91 1009.07 1005.90 1004.92
1016.43 1015.91 1015.42 1014.95 1014.49 1014.03 1011.33 1008.79 1007.00 1006.54 1006.08 1004.26 1004.27 1003.71 1003.29 1003.24 1003.03 1003.05 1003.73 1004.21 1004.24 1004.11 1003.97 1003.92 1004.65 1005.53 1004.87 1005.18 1004.80 1003.91 1003.31 1002.62 1002.55 1002.13 1002.14 1002.45 1003.70 1006.03 1007.84 1008.43 1008.79 1009.50 1011.06 1006.47 1006.45
1016.31 1015.78 1015.27 1014.68 1014.43 1009.89 1008.90 1007.81 1007.10 1006.54 1005.48 1002.92 1003.02 1002.83 1002.99 1003.12 1002.99 1002.88 1002.85 1003.68 1003.62 1003.60 1004.02 1004.07 1005.36 1004.92 1004.54 1005.06 1005.63 1004.33 1003.34 1003.26 1003.30 1002.76 1002.87 1004.37 1005.97 1008.50 1009.54 1010.01 1009.01 1010.75 1010.69 1007.81 1008.39
1016.15 1015.58 1015.10 1015.13 1013.19 1009.25 1007.13 1006.79 1006.74 1006.78 1004.54 1002.63 1001.87 1001.87 1002.29 1002.68 1002.66 1002.50 1002.62 1002.71 1002.97 1003.17 1004.20 1003.81 1004.48 1004.03 1004.12 1003.90 1003.94 1003.95 1003.51 1003.31 1003.44 1003.82 1004.80 1005.86 1007.69 1008.98 1009.09 1010.74 1009.68 1009.24 1008.71 1008.21 1006.81
1015.83 1015.32 1014.84 1012.93 1012.65 1008.97 1007.16 1006.84 1007.02 1006.16 1003.00 1001.41 1001.41 1001.83 1002.17 1002.42 1002.39 1002.46 1002.17 1002.47 1002.53 1002.82 1002.75 1002.46 1002.41 1002.45 1002.26 1002.60 1003.02 1003.09 1002.96 1003.44 1004.36 1005.40 1006.67 1007.92 1009.71 1009.11 1009.48 1009.38 1008.18 1007.24 1006.74 1006.83 1006.84
1015.23 1014.85 1014.86 1012.65 1009.00 1007.27 1007.15 1006.93 1006.18 1004.30 1002.20 1001.17 1000.92 1001.18 1001.45 1001.47 1001.83 1002.07 1002.31 1002.37 1002.69 1002.94 1002.52 1002.23 1002.02 1001.88 1002.03 1002.31 1002.73 1002.82 1002.82 1003.97 1005.41 1006.92 1009.53 1008.57 1009.49 1010.28 1009.17 1007.83 1007.05 1006.69 1006.85 1007.04 1007.47
1014.26 1013.99 1012.23 1010.74 1008.82 1008.14 1007.62 1006.87 1005.30 1002.94 1001.76 1001.37 1001.55 1001.39 1001.60 1002.59 1002.54 1002.10 1002.60 1002.79 1002.38 1002.78 1002.45 1002.13 1001.99 1002.43 1003.41 1004.27 1003.17 1003.26 1004.01 1004.74 1005.55 1007.65 1008.04 1008.01 1008.88 1009.76 1008.98 1007.26 1006.29 1006.15 1006.76 1007.74 1008.68
1013.04 1011.54 1010.30 1008.51 1009.09 1008.54 1007.51 1005.97 1004.10 1002.55 1002.08 1001.90 1001.66 1001.59 1002.67 1004.21 1005.72 1004.36 1003.99 1004.24 1003.81 1003.30 1003.27 1003.17 1002.32 1002.75 1003.89 1003.50 1003.63 1003.94 1005.05 1004.31 1006.31 1007.60 1008.38 1008.97 1009.18 1009.14 1008.70 1007.58 1006.67 1006.31 1006.69 1008.11 1009.44
1013.16 1009.72 1007.56 1007.66 1008.20 1008.21 1007.21 1005.34 1003.73 1002.98 1002.97 1002.92 1002.53 1002.23 1002.38 1004.10 1005.18 1004.70 1004.81 1004.03 1004.64 1003.94 1004.01 1004.02 1003.47 1003.46 1004.07 1003.86 1004.23 1006.26 1006.31 1006.51 1007.17 1008.49 1008.98 1008.88 1009.06 1009.14 1008.23 1007.48 1007.36 1006.79 1006.95 1007.57 1009.31
1012.48 1008.65 1007.54 1007.24 1008.20 1007.65 1006.16 1004.39 1003.08 1002.92 1003.49 1003.40 1003.02 1002.75 1002.73 1003.09 1003.25 1003.19 1003.22 1003.88 1003.97 1004.10 1004.46 1004.88 1004.82 1004.60 1004.87 1005.96 1005.84 1006.56 1007.10 1009.47 1009.42 1009.77 1009.41 1008.63 1009.61 1009.49 1008.53 1008.08 1008.02 1007.55 1007.81 1008.34 1009.66
1011.51 1007.68 1007.15 1007.23 1007.51 1006.52 1005.16 1003.76 1003.78 1003.36 1003.42 1003.27 1003.36 1003.42 1003.56 1003.62 1003.63 1003.67 1003.73 1003.48 1004.74 1005.04 1005.21 1006.47 1006.41 1005.80 1005.41 1007.19 1006.99 1007.50 1007.70 1008.72 1010.20 1007.91 1007.32 1007.97 1011.15 1010.68 1009.39 1008.53 1008.70 1008.42 1008.78 1009.16 1009.42
1011.81 1007.28 1006.99 1006.89 1006.31 1005.23 1004.34 1003.59 1003.65 1003.52 1003.26 1003.13 1003.14 1003.27 1003.34 1003.40 1003.51 1003.85 1004.45 1004.63 1005.86 1006.00 1006.38 1006.75 1007.41 1007.43 1006.77 1007.03 1007.14 1008.31 1007.54 1006.93 1007.00 1006.60 1006.99 1008.53 1010.31 1011.16 1009.91 1009.12 1009.11 1009.18 1009.29 1009.77 1010.35
1012.55 1007.29 1006.77 1006.76 1005.95 1005.46 1004.21 1003.20 1003.35 1003.04 1003.09 1003.20 1003.39 1003.32 1003.35 1003.09 1003.24 1003.86 1004.77 1006.65 1008.71 1008.84 1009.30 1007.87 1007.15 1007.46 1007.28 1007.08 1006.55 1006.83 1006.07 1005.34 1005.51 1005.50 1006.32 1008.35 1009.71 1010.18 1009.54 1009.38 1009.28 1009.47 1009.67 1009.75 1010.35
1012.18 1008.91 1006.75 1006.04 1005.73 1004.98 1004.46 1004.06 1003.71 1003.26 1003.03 1003.22 1003.38 1003.46 1003.26 1003.27 1003.49 1004.11 1005.94 1009.00 1010.49 1010.59 1010.54 1008.84 1007.68 1007.04 1006.08 1005.25 1005.36 1005.00 1004.29 1004.18 1004.35 1005.09 1005.67 1006.80 1008.44 1009.18 1009.25 1009.36 1009.48 1009.73 1009.88 1010.08 1010.65
1011.51 1009.64 1007.72 1006.27 1005.42 1004.33 1004.40 1004.39 1003.97 1003.29 1003.51 1003.63 1003.73 1003.36 1003.25 1003.56 1004.13 1005.21 1006.58 1008.92 1010.93 1010.23 1010.57 1008.91 1008.15 1007.50 1007.05 1006.08 1005.98 1005.58 1004.54 1003.90 1004.15 1004.99 1005.51 1006.18 1007.43 1008.23 1008.69 1009.09 1009.53 1009.88 1010.19 1010.36 1010.76
1012.36 1011.25 1009.31 1006.98 1005.34 1004.87 1004.19 1003.85 1004.17 1004.06 1004.30 1004.26 1004.11 1004.13 1004.00 1004.02 1004.08 1004.80 1006.48 1008.42 1009.46 1008.88 1008.77 1008.38 1007.24 1008.42 1008.47 1006.97 1006.29 1006.19 1004.95 1004.15 1004.03 1004.47 1005.50 1006.32 1007.52 1007.97 1008.55 1009.15 1009.66 1010.01 1010.27 1010.64 1011.10
Wind_Speed
12 11 11 10 10 8 8 8 7 7 8 9 9 10 10 11 15 7 11 7 7 15 2 10 14 21 17 20 8 16 5 9 8 6 11 9 10 3 3 8 4 6 8 19 20
12 11 11 10 9 9 8 8 7 8 9 9 9 9 9 10 10 15 11 7 11 12 9 15 16 16 13 18 2 9 10 3 15 5 12 10 12 9 6 7 9 9 11 17 19
13 12 11 10 9 9 8 9 8 8 8 9 9 9 9 11 8 16 14 13 12 12 15 21 17 11 18 9 10 11 13 7 24 8 5 3 7 11 9 10 9 17 17 19 19
12 12 11 10 10 9 9 10 9 8 8 8 10 9 9 7 6 8 11 14 10 11 14 19 12 15 7 9 13 7 16 12 10 7 4 8 5 12 7 10 9 13 19 19 19
12 12 12 11 10 10 10 10 10 10 8 8 9 9 7 9 11 12 4 9 11 11 15 16 14 10 6 11 12 13 16 2 9 6 7 8 6 5 8 12 10 10 19 18 17
11 12 12 11 11 10 10 11 10 11 10 8 8 8 6 13 10 16 14 11 12 12 19 13 12 10 12 10 15 12 25 12 5 4 5 7 11 10 11 1 11 9 14 18 17
12 12 12 12 11 11 11 10 10 11 11 8 7 6 9 15 15 13 14 13 13 15 15 9 10 12 16 6 5 12 12 14 13 23 9 6 11 7 20 33 11 9 11 14 17
12 11 12 13 13 12 12 11 12 13 11 9 6 9 8 18 4 17 14 13 13 10 12 13 10 14 16 6 11 11 18 11 7 5 26 4 3 14 27 33 9 11 12 11 13
14 13 13 14 14 13 13 13 13 10 8 5 7 8 17 4 11 13 14 13 11 10 10 7 11 15 18 12 9 7 7 14 17 28 21 11 11 17 33 21 11 8 11 10 12
15 14 13 14 15 14 15 10 6 6 6 9 11 8 16 12 12 12 10 12 9 10 11 11 10 13 5 8 5 16 17 10 7 12 10 12 12 11 9 11 9 7 7 11 13
16 15 14 14 14 13 14 5 6 7 12 13 14 18 17 15 13 9 12 13 12 13 13 14 13 16 22 5 17 26 18 17 13 9 3 21 11 10 18 17 4 19 26 9 10
17 16 15 15 14 11 7 7 10 11 6 21 22 22 23 12 11 13 13 13 14 16 16 18 6 19 11 13 19 24 18 17 12 13 8 15 16 7 22 13 14 23 23 10 10
16 16 16 15 15 7 11 15 10 12 9 14 22 17 18 12 11 16 17 16 19 20 20 14 10 17 18 16 19 19 19 12 17 18 16 12 9 16 18 19 23 27 18 23 10
16 18 17 19 4 10 13 16 13 6 7 11 17 17 17 15 18 16 16 16 19 22 18 7 14 19 16 7 21 22 15 16 16 21 13 9 6 9 11 7 6 14 20 19 9
16 19 17 8 13 9 5 4 7 3 4 8 12 3 17 22 19 16 19 18 19 21 13 18 20 20 21 19 13 20 20 20 16 15 16 16 6 2 14 10 11 15 15 20 5
16 16 18 5 7 14 8 5 5 7 7 10 8 9 13 17 18 19 17 16 14 18 21 21 17 21 22 19 15 20 21 14 13 6 5 10 5 4 4 8 3 9 10 6 12
18 14 9 9 5 1 6 7 7 9 2 8 5 13 16 18 18 15 19 19 15 15 17 20 19 18 14 13 18 23 15 6 11 6 7 14 11 10 14 9 8 6 8 10 10
23 17 9 9 10 7 6 8 10 14 7 5 6 13 7 24 13 9 13 16 20 18 17 18 16 16 23 28 21 18 13 9 11 4 9 15 2 1 9 8 7 7 9 10 16
31 5 6 7 11 7 8 10 13 9 11 10 15 9 4 11 11 22 6 12 21 8 9 22 20 15 24 19 17 16 9 10 3 7 5 6 5 3 5 10 11 11 7 12 12
7 9 6 8 7 5 8 15 16 4 7 13 13 13 9 14 7 7 10 16 25 9 11 14 16 12 5 7 9 2 5 8 4 4 7 5 11 4 2 6 10 12 11 8 15
5 7 6 9 5 6 10 15 13 5 5 8 13 16 13 13 10 10 9 14 7 5 9 10 12 16 5 7 5 9 6 11 9 5 8 5 4 7 9 11 10 13 14 13 16
7 4 6 8 7 8 12 12 6 6 11 6 10 13 13 14 14 14 15 8 5 4 9 6 2 5 11 14 10 2 11 18 15 1 7 7 2 8 11 10 8 11 10 12 11
7 1 6 8 8 11 15 13 7 6 11 8 9 13 13 15 12 14 9 11 15 13 9 2 4 7 4 1 14 4 10 12 16 7 3 6 3 4 8 6 8 8 7 8 7
7 4 6 7 11 15 13 6 7 7 9 6 13 15 15 15 15 16 16 13 28 21 29 6 7 6 11 19 10 9 12 11 13 4 4 3 10 2 7 4 7 6 4 6 6
6 5 10 6 11 14 6 10 10 13 6 5 7 13 15 16 17 18 9 6 2 10 12 12 11 14 13 17 4 17 4 4 4 2 5 5 13 14 5 4 6 5 7 6 4
6 9 11 10 6 5 4 9 13 11 8 11 17 19 14 11 9 23 12 2 8 15 8 7 9 8 16 4 1 17 12 4 2 6 4 9 12 6 6 5 5 5 4 6 6
11 13 9 10 7 9 10 7 7 10 10 13 18 18 17 19 21 14 7 20 11 11 18 6 9 5 6 15 4 5 6 1 3 5 4 4 8 4 7 5 2 2 4 5 5
Wind_Direction
4 1 1 356 349 349 341 333 327 325 330 330 328 324 326 318 297 237 245 248 196 164 207 242 217 251 253 259 246 225 330 52 351 75 124 166 118 123 88 135 100 86 66 141 151
359 359 360 354 347 339 336 326 323 327 327 330 325 323 320 328 275 256 218 160 161 148 217 234 229 231 257 274 299 86 328 334 279 125 136 149 152 158 173 143 144 133 109 135 156
357 354 354 348 342 335 330 321 322 319 321 326 325 323 317 308 268 241 160 159 174 179 246 282 280 274 261 301 332 149 190 237 315 49 348 110 233 165 186 183 186 176 150 158 166
352 352 349 342 337 331 324 320 317 314 316 322 323 320 317 249 244 71 150 163 165 205 247 263 257 265 356 316 214 172 184 232 196 93 275 263 181 194 202 154 123 117 151 166 177
346 347 346 342 334 328 319 314 310 306 305 311 316 316 275 222 253 131 193 152 164 199 242 253 249 253 36 337 329 45 316 217 125 220 232 283 261 274 218 136 138 149 155 174 185
341 342 341 340 332 321 315 309 305 300 297 299 305 311 244 250 111 147 183 166 187 209 240 253 275 342 167 204 239 162 222 265 243 236 226 248 266 213 8 234 159 184 183 178 190
340 337 335 333 326 316 310 302 296 290 286 283 286 269 257 257 131 167 181 195 220 223 264 278 307 304 285 303 149 217 239 254 21 360 243 254 264 37 38 317 163 206 213 193 185
338 335 329 328 325 317 311 304 294 286 275 259 260 247 256 219 276 175 187 217 234 250 279 312 317 289 282 264 258 266 15 355 22 318 275 232 223 131 149 237 192 228 206 211 182
334 333 330 329 325 317 309 303 291 284 239 200 217 229 243 80 216 212 199 224 224 245 261 278 283 276 283 252 315 11 242 207 227 196 238 213 286 183 191 208 205 213 223 205 200
334 331 329 328 324 318 307 281 296 295 216 204 258 244 263 236 205 197 211 241 226 241 248 247 264 268 286 326 329 259 290 213 196 204 240 262 264 274 271 199 211 201 261 207 204
334 330 326 325 323 322 318 205 210 200 230 227 193 228 202 222 164 196 210 211 234 239 244 240 235 247 55 332 261 279 304 306 350 339 157 297 291 329 12 356 325 44 328 260 228
332 327 325 322 317 317 281 255 342 344 272 223 258 217 250 168 195 220 203 217 232 242 241 245 304 299 140 234 251 263 279 284 331 321 304 270 279 309 45 27 57 40 269 288 239
329 324 322 319 319 271 235 251 320 325 292 242 217 242 239 245 238 216 188 222 243 236 246 246 266 268 293 329 303 297 309 320 313 298 292 324 317 32 15 34 29 17 278 278 272
329 327 323 321 284 226 215 235 255 312 277 207 202 225 230 232 233 259 188 217 236 249 246 269 245 261 287 279 302 297 310 306 304 293 304 6 326 72 36 30 83 229 252 260 9
325 327 321 327 316 259 46 259 342 279 284 147 182 225 211 221 241 226 255 205 234 260 270 264 233 243 265 248 235 285 282 289 312 4 9 0 353 81 55 352 278 253 261 272 185
320 323 323 194 219 261 298 280 241 236 270 159 169 203 203 222 231 243 238 241 264 268 274 276 259 250 236 241 230 254 268 292 324 326 307 34 263 75 111 209 208 28 16 27 5
314 309 294 310 266 216 283 253 233 253 152 248 191 211 201 218 212 230 237 236 228 252 258 260 272 290 309 289 292 293 285 292 312 345 318 213 238 30 336 26 9 42 5 38 35
311 305 212 248 308 253 265 235 258 272 320 57 341 305 276 5 332 229 229 249 244 235 265 278 278 291 17 297 299 281 274 261 266 210 228 282 160 240 274 349 4 44 63 33 43
309 182 230 218 221 270 253 229 230 282 3 359 309 244 83 138 309 326 17 357 320 306 302 304 285 291 173 241 272 301 265 299 195 245 309 226 111 26 304 284 10 8 61 87 92
308 262 190 128 177 233 244 256 295 359 332 303 287 291 300 152 170 187 231 185 242 272 237 266 276 291 13 340 245 212 0 346 47 6 334 289 114 164 119 34 14 3 50 58 106
250 236 121 160 174 233 237 240 252 80 338 312 301 310 328 314 288 326 321 148 215 314 315 307 300 291 137 52 0 16 22 15 351 138 212 283 52 344 25 43 7 14 28 41 95
291 265 144 164 210 230 244 250 343 316 298 272 266 281 288 297 303 298 298 335 102 270 281 31 355 322 314 107 55 332 186 181 240 278 269 262 143 322 345 39 24 19 49 36 22
280 265 161 204 224 232 231 263 289 275 282 280 289 283 274 280 290 287 295 4 25 341 4 164 71 319 18 182 30 280 293 259 261 285 295 317 131 275 326 30 36 29 42 86 18
278 229 138 208 253 293 299 232 261 231 261 268 282 283 281 285 278 267 267 61 349 352 331 304 275 187 189 217 175 189 239 234 236 267 299 32 126 30 256 39 47 37 5 73 102
244 338 323 196 213 251 253 314 312 287 324 246 278 286 268 270 290 296 72 79 97 265 295 288 283 271 283 288 317 342 188 225 334 342 291 164 143 208 101 48 46 24 4 26 21
309 337 331 283 320 300 208 264 259 272 338 332 316 306 304 291 223 264 17 214 166 215 259 267 268 319 336 83 139 280 293 193 56 21 320 18 91 70 80 62 43 17 18 17 21
351 337 295 277 209 233 242 226 272 336 313 318 322 326 304 297 310 327 75 345 252 189 201 205 223 104 247 303 161 296 324 104 228 103 91 345 68 55 35 17 14 78 55 20 4